Location: Cincinnati Observatory Center
(39.1389°N, 84.4225°W)
Time: 14:35:53
(UTC-05:00)

Daily predictions for brighter satellites

Satellite Brightness Start Highest point End
(mag) Time Altitude Azimuth Time Altitude Azimuth Time Altitude Azimuth
Cosmos 2218 Rocket 4.1 18:05:55 10° N 18:11:59 58° E 18:18:00 10° SSE
METEOR-M 4.3 18:08:27 10° SSE 18:13:37 52° ENE 18:18:48 10° N
NOSS 3-4 (A) 4.0 18:08:18 10° NNW 18:15:16 57° NE 18:22:42 10° SE
NOSS 3-4 (C) 4.0 18:08:25 10° NNW 18:15:22 57° NE 18:22:48 10° SE
Cosmos 44 3.1 18:12:29 10° SSW 18:16:46 80° WNW 18:21:12 10° NNE
SL-14 R/B 3.4 18:13:42 10° S 18:17:41 82° W 18:21:38 10° N
Cosmos 1328 Rocket 4.5 18:15:04 10° NNE 18:18:46 26° ENE 18:22:26 10° SE
Cosmos 1484 Rocket 3.7 18:15:28 10° S 18:19:10 53° W 18:22:52 10° NNW
Meteor 1-28 Rocket 3.7 18:15:45 10° N 18:19:33 66° WNW 18:23:16 10° SSW
Cosmos 2228 Rocket 4.2 18:19:29 10° NNE 18:23:12 24° ENE 18:26:54 10° SE
Cosmos 371 Rocket 4.3 18:20:27 10° SSE 18:24:27 27° E 18:28:29 10° NE
SMAP 3.7 18:22:19 10° S 18:26:55 62° W 18:31:33 10° NNW
CZ-4 R/B 4.4 18:28:47 10° SSE 18:32:52 70° ENE 18:36:59 10° N
Cosmos 2098 Rocket 4.2 18:28:25 10° N 18:33:52 46° E 18:40:23 10° SSE
SL-08 R/B 4.4 18:27:43 10° N 18:33:53 70° E 18:39:58 10° SSE
Cosmos 1766 Rocket 3.5 18:31:07 10° S 18:35:26 88° E 18:39:48 10° N
Cosmos 2058 3.5 18:35:16 10° SSE 18:39:05 36° E 18:42:57 10° NNE
H-2A R/B 3.8 18:40:58 10° SE 18:44:02 24° ENE 18:47:11 10° NNE
Cosmos 2366 rocket 4.1 18:38:30 10° N 18:44:45 86° W 18:50:55 10° S
COSMOS 2406 3.2 18:40:04 10° S 18:45:43 64° ESE 18:51:22 10° NNE
Meteor 1-27 4.3 18:41:07 10° N 18:46:47 60° ENE 18:52:30 10° SSE
Meteor 1-11 4.2 18:41:17 10° S 18:46:51 75° E 18:52:30 10° NNE
Cosmos 1455 2.7 18:43:49 10° N 18:47:23 36° ENE 18:50:54 10° SSE
Cosmos 1151 Rocket 3.6 18:43:30 10° NNE 18:47:32 34° ENE 18:51:31 10° SE
SKYMED 2 3.6 18:45:44 10° NNE 18:50:05 87° WNW 18:54:26 10° SSW
Cosmos 1346 Rocket 2.6 18:46:36 10° N 18:50:30 73° E 18:54:21 10° SSE
CZ-4 R/B 2.8 18:47:14 10° S 18:51:17 44° W 18:55:22 10° NNW
YAOGAN 1 3.1 18:50:11 10° S 18:54:27 62° WSW 18:58:46 10° NNW
Cosmos 1626 2.6 18:51:08 10° SSW 18:54:48 63° W 18:58:31 10° N
Cosmos 1315 Rocket 4.4 18:53:49 10° SW 18:57:27 36° WNW 19:01:05 10° N
Cosmos 44 Rocket 4.4 18:55:33 10° WSW 18:59:58 40° NW 19:04:28 10° NNE
NOAA 12 4.0 18:56:07 10° SSE 19:01:20 79° ENE 19:06:37 10° N
SL-27 R/B 3.8 18:58:41 10° SSE 19:00:56 21° ESE 19:00:56 21° ESE
RESURS DK-1 4.4 18:59:27 10° NNE 19:00:14 12° NNE 19:00:14 12° NNE
Nadezhda 3 Rocket 4.0 18:56:48 10° S 19:03:03 67° E 19:09:22 10° NNE
ERBS 3.6 19:04:54 10° NNW 19:07:28 24° NNE 19:07:28 24° NNE
Cosmos 2151 2.9 19:05:02 10° S 19:09:16 79° E 19:13:35 10° N
Landsat 4 4.4 19:09:15 10° N 19:12:54 52° WNW 19:16:31 10° SSW
EO 1 Del DPAF 3.4 19:09:49 10° N 19:13:39 75° WNW 19:17:28 10° SSW
Thor Agena Rocket 4.1 19:12:20 21° NE 19:15:14 36° E 19:19:58 10° SSE
ALOS 2.8 19:10:42 10° S 19:15:18 61° W 19:19:56 10° NNW
ERS-2 2.0 19:13:35 10° SSE 19:17:15 79° ENE 19:20:58 10° N
Cosmos 332 Rocket 4.0 19:15:18 10° SSW 19:20:10 72° WNW 19:25:06 10° NNE
Cosmos 909 Rocket 4.0 19:13:52 10° NNW 19:20:36 72° ENE 19:26:49 10° SE
Cosmos 1934 Rocket 4.2 19:18:04 10° N 19:24:13 48° ENE 19:30:19 10° SSE
Cosmos 1515 Rocket 3.7 19:23:14 10° NNW 19:27:34 73° W 19:31:53 10° S
CZ-4C R/B 2.3 19:25:27 10° S 19:30:14 44° ESE 19:31:21 39° E
Tiangong 1 2.8 19:29:04 10° W 19:31:00 20° SSW 19:31:09 20° SSW
Cosmos 1340 2.6 19:27:53 10° N 19:36:56 - SSE 19:31:20 60° NE
Cosmos 1605 Rocket 4.4 19:27:00 10° N 19:32:36 36° ENE 19:32:51 36° E
SPOT 3 Rocket 4.3 19:30:57 10° S 19:35:58 54° W 19:41:02 10° NNW
Cosmos 1500 Rocket 4.2 19:34:00 10° SSW 19:38:23 58° W 19:42:48 10° N
Lacrosse 5 1.8 19:35:03 10° SSW 19:40:04 63° SE 19:40:56 53° E
Cosmos 2239 Rocket 4.4 19:37:41 10° N 19:43:51 89° W 19:50:01 10° S
ASTRO E2 4.5 19:47:37 10° WSW 19:50:47 23° S 19:51:07 22° S
Cosmos 2208 Rocket 4.5 19:48:09 10° SSW 19:53:22 60° WNW 19:57:10 19° N
Cosmos 468 Rocket 3.8 19:50:04 10° SSW 19:55:12 88° WNW 19:56:33 50° NNE
Cosmos 1898 Rocket 3.3 19:53:29 10° NNW 19:58:49 79° ENE 19:59:21 70° SE
Cosmos 1980 Rocket 4.4 19:55:34 10° N 19:55:58 11° N 19:55:58 11° N
Cosmos 1814 Rocket 4.2 19:55:32 10° S 19:59:56 55° SSE 19:59:56 55° SSE
ISS -1.3 20:02:52 10° SW 20:03:52 19° SW 20:03:52 19° SW
Cosmos 1763 Rocket 4.1 20:03:11 10° S 20:06:38 43° S 20:06:38 43° S
Cosmos 2082 Rocket 2.9 20:02:58 10° S 20:06:43 40° SSE 20:06:43 40° SSE
Envisat 4.4 20:16:42 27° N 20:16:42 27° N 20:18:58 10° NNW
Cosmos 2278 4.3 20:15:15 10° NNW 20:19:10 45° N 20:19:10 45° N
GEOS 3 Rocket 4.3 20:28:14 48° NNW 20:28:14 48° NNW 20:32:02 10° NNW
Cosmos 1833 Rocket 3.5 20:25:29 10° SSW 20:29:06 42° SSW 20:29:06 42° SSW
Cosmos 2369 4.5 20:30:30 10° NNW 20:34:31 46° NW 20:34:31 46° NW
CZ-4C R/B 4.3 21:14:22 10° WSW 21:16:36 21° W 21:16:36 21° W
